Ash Shahamah, UAE

10:01 PM +04 on May 28, 2017 (GMT +0400)
Ash Shahamah

Weather History for 41217 - May, 2013

Change the Weather History Date:

Monday, May 20, 2013

  Actual Average Record
Temperature  
Mean Temperature 84 °F -  
Max Temperature 95 °F 103 °F - ()
Min Temperature 72 °F 77 °F - ()
Cooling Degree Days 18    
Growing Degree Days 34 (Base 50)    
Moisture  
Dew Point 64 °F    
Average Humidity 51    
Maximum Humidity 70    
Minimum Humidity 25    
Precipitation  
Precipitation 0.00 in 0.00 in - ()
Sea Level Pressure  
Sea Level Pressure 29.68 in    
Wind  
Wind Speed 7 mph ()    
Max Wind Speed 14 mph    
Max Gust Speed -    
Visibility 6.0 miles    
Events      
T = Trace of Precipitation, MM = Missing Value Source: Averaged Metar Reports

Daily Weather History Graph

Daily Weather History Graph

Search for Another Location

Airport or City:

Trip Planner

Search our weather history database for the weather conditions in past years. The results will help you decide how hot, cold, wet, or windy it might be!

Date:

Astronomy

May. 20, 2013 Rise Set
Actual Time 5:35 AM +04 7:00 PM +04
Civil Twilight 5:11 AM +04 7:25 PM +04
Nautical Twilight 4:41 AM +04 7:54 PM +04
Astronomical Twilight 4:10 AM +04 8:25 PM +04
Moon 2:12 PM +04 (5/20) 1:44 AM +04 (5/20)
Length of Visible Light 14h 13m
Length of Day
13h 24m
Waxing Gibbous, 71% of the Moon is Illuminated
May 20
Waxing Gibbous
May 25
Full
May 31
Last Quarter
Jun 8
New
Jun 16
First Quarter

Hourly Weather History & Observations

Time (+04) Temp. Heat Index Dew Point Humidity Pressure Visibility Wind Dir Wind Speed Gust Speed Precip Events Conditions
12:00 AM 82.4 °F 84.6 °F 66.2 °F 58% 29.68 in - West 4.6 mph - N/A   Clear
1:00 AM 81 °F - 66 °F 51% 29.68 in 6 mi West 2.3 mph - -  
1:00 AM 80.6 °F 82.7 °F 66.2 °F 61% 29.68 in - West 2.3 mph - N/A   Clear
2:00 AM 80.6 °F 82.3 °F 64.4 °F 58% 29.65 in - SW 2.3 mph - N/A   Clear
3:00 AM 77.0 °F - 64.4 °F 65% 29.65 in - South 8.1 mph - N/A   Clear
4:00 AM 74 °F - 64 °F 63% 29.67 in 6 mi SSW 9.2 mph - -  
4:00 AM 75.2 °F - 64.4 °F 69% 29.65 in - SSW 9.2 mph - N/A   Clear
5:00 AM 73.4 °F - 62.6 °F 69% 29.68 in - South 8.1 mph - N/A   Clear
6:00 AM 73.4 °F - 60.8 °F 65% 29.68 in - South 9.2 mph - N/A   Clear
7:00 AM 74 °F - 61 °F 56% 29.71 in 6 mi South 9.2 mph - -  
7:00 AM 75.2 °F - 60.8 °F 61% 29.71 in - South 9.2 mph - N/A   Clear
8:00 AM 78.8 °F - 60.8 °F 54% 29.71 in - South 9.2 mph - N/A   Clear
9:00 AM 84.2 °F 85.6 °F 64.4 °F 51% 29.74 in - South 6.9 mph - N/A   Clear
10:00 AM 88 °F - 64 °F 35% 29.74 in 6 mi WSW 6.9 mph - -  
10:00 AM 87.8 °F 89.4 °F 64.4 °F 46% 29.74 in - WSW 6.9 mph - N/A   Clear
11:00 AM 91.4 °F 92.1 °F 62.6 °F 38% 29.74 in - NW 8.1 mph - N/A   Clear
12:00 PM 91.4 °F 92.1 °F 62.6 °F 38% 29.71 in - WNW 10.4 mph - N/A   Clear
1:00 PM 93 °F - 61 °F 25% 29.71 in 6 mi WNW 11.5 mph - -  
1:00 PM 93.2 °F 93.3 °F 60.8 °F 34% 29.71 in - WNW 11.5 mph - N/A   Clear
2:00 PM 95.0 °F 96.0 °F 62.6 °F 34% 29.68 in - WNW 13.8 mph - N/A   Clear
3:00 PM 93.2 °F 93.3 °F 60.8 °F 34% 29.65 in - WNW 10.4 mph - N/A   Clear
4:00 PM 93 °F - 61 °F 25% 29.66 in 6 mi WNW 12.7 mph - -   Clear
4:00 PM 93.2 °F 93.3 °F 60.8 °F 34% 29.65 in - WNW 12.7 mph - N/A   Clear
5:00 PM 93.2 °F 94.1 °F 62.6 °F 36% 29.65 in - West 12.7 mph - N/A   Clear
6:00 PM 89.6 °F 91.1 °F 64.4 °F 43% 29.65 in - West 12.7 mph - N/A   Clear
7:00 PM 87 °F - 70 °F 48% 29.67 in 6 mi WNW 9.2 mph - -  
7:00 PM 86.0 °F 90.4 °F 69.8 °F 58% 29.65 in - WNW 9.2 mph - N/A   Clear
8:00 PM 86.0 °F 90.4 °F 69.8 °F 58% 29.68 in - WNW 8.1 mph - N/A   Clear
9:00 PM 84.2 °F 89.6 °F 71.6 °F 66% 29.68 in - West 6.9 mph - N/A   Clear
10:00 PM 84.2 °F 89.6 °F 71.6 °F 66% 29.68 in - West 5.8 mph - N/A   Clear
11:00 PM 82.4 °F 87.2 °F 71.6 °F 70% 29.68 in - West 4.6 mph - N/A   Clear